Starlink 30142

operational
NORAD ID: 56836 Int'l Des: 2023-079 Owner: SPXS Country: US Constellation: starlink
LEOCIRCULAR

关于 Starlink 30142

正在加载描述...

实时位置

正在加载3D地球...

即将过境

高度历史

Altitude vs Time

uPlot chart will show altitude changes over time

两行轨道根数

1 56836U 23079P 25352.56608368 .00000509 00000-0 52791-4 0 9990
2 56836 43.0026 187.9758 0000948 264.6337 95.4397 15.02525267140683
Epoch: Dec 18, 2025 • Age: 27 hours

当前状态

高度 568.5 km
速度 7.58 km/s
星下点 -34.76°S, 78.77°E
发射日期 Jun 4, 2023
运行时间 2.5 years
类型 internet

技术详情

分类 Payload
质量 730.00 kg
干质量 700.00 kg
总质量 730.00 kg
长度 0.30 m
直径 4.10 m
跨度 29.00 m
形状 Box + pan
制造商 SPXS
平台类型 Starlink V2M
阶段状态 In Orbit
所有者/国家 SPXS/US

大型星座

Loading constellations...